Other Surface Observations
Issued by NWS Tucson, AZ

Home | Current Version | Previous Version | Text Only | Print | Product List | Glossary On
Versions: 1 2 3 4 5 6 7 8 9 10 11 12 13 14 15 16 17 18 19 20 21 22 23 24 25 26 27 28 29 30 31 32 33 34 35 36 37 38 39 40 41 42 43 44 45 46 47 48 49 50
048
SXUS55 KTWC 171015
OSOTWC

WEATHER ROUNDUP FOR SOUTHEAST ARIZONA
NATIONAL WEATHER SERVICE TUCSON AZ
315 AM MST TUE OCT 17 2017

AZZ504>506-514-171115-
LOCATION       SKY/WX    TMP DP  RH WIND       PRES   REMARKS
TUCSON         CLEAR     78  46  32 E12       30.10F
DAVIS-MONTHAN  CLEAR     73  45  35 E3        30.08F
CHILDRENS PARK N/A      N/A N/A  43 NE2               PIMA CO DEQ
ALVERNON/22ND  N/A       77 N/A N/A SE5               PIMA CO DEQ
CHERRY/GLENN   N/A      N/A N/A N/A N/A               PIMA CO DEQ
TANGERINE      N/A       70 N/A N/A NE5               PIMA CO DEQ
CONTL RANCH    N/A       70  43  37 SE4               PIMA CO DEQ
GRANT/1ST      N/A       72  45  38 SE2               PIMA CO DEQ
CRAYCROFT/22ND N/A       75  45  34 SE4               PIMA CO DEQ
GOLFLINKS/KOLB N/A       75  44  33 SE5               PIMA CO DEQ
AJO/12TH       N/A       77  46  34 E6                PIMA CO DEQ
FAIRGROUNDS    N/A       74 N/A N/A NW22              PIMA CO DEQ
SAGUARO        N/A       72  45  38 W2                *SABINO CYN
SAN CARLOS     N/A       62  40  45 CALM              *SAN CARLOS
GREEN VALLEY   N/A       68  46  45 SW3               PIMA CO DEQ
HORSE CAMP CYN N/A       69  43  39 E12G17            *ARAVAIPA CYN
RINCON MTNS    N/A       56  40  55 E5                *NR MANNING CAMP
$$

AZZ509>511-171115-
LOCATION       SKY/WX    TMP DP  RH WIND       PRES   REMARKS
SAFFORD        CLEAR     66  43  43 E9        30.18F
STRAY HORSE    N/A       50  39  67 N3                *
TRAIL CABIN    N/A       56  40  54 SE3               *N OF GRANVILLE
BLACK HILLS    NOT AVBL
DRY LAKE       N/A       53  40  62 SE6G10            *NATANES MTNS
NOON CREEK     N/A       61  43  52 SW4               *PINALENO MTNS
COLUMBINE      N/A       38  32  80 CALM              *PINALENO MTNS
GUTHRIE        N/A       59  41  52 E9G14             *SW OF GUTHRIE
$$

AZZ502-503-513-171115-
LOCATION       SKY/WX    TMP DP  RH WIND       PRES   REMARKS
NOGALES        CLEAR     65  47  52 NE7       30.16F
SELLS          N/A       68  39  34 NE2               *
SASABE         N/A       59  39  48 SW5               *ALTAR VLY
HOPKINS        N/A       64  39  40 N2                *SANTA RITA MTNS
CARR CYN       N/A       62  45  53 CALM              *W OF HEREFORD
$$

AZZ507-508-512-171115-
LOCATION       SKY/WX    TMP DP  RH WIND       PRES   REMARKS
SIERRA VISTA   CLEAR     62  44  51 CALM      30.25F
DOUGLAS        CLEAR     58  44  60 N8        30.21F
EMPIRE MTNS    NOT AVBL
MULESHOE RANCH N/A       70  45  40 E7G16             *PRESERVE
HEADQUARTERS   N/A       61  43  51 E2G12             *CHIRICAHUA MTNS
$$

.............................NOTES.............................
THIS IS AN AUTOMATED COLLECTIVE WITH MINIMAL QUALITY CONTROL.
PIMA CO DEQ SITES HAVE NONSTANDARD WIND SENSOR HEIGHTS.
PIMA CO DEQ SITES DO NOT REPORT WIND GUSTS.
* INDICATES WIND SENSORS LOCATED AT 20 FEET INSTEAD OF 33 FEET.
..............................KEY..............................
SKY/WX - SKY CONDITION/WEATHER
TMP    - TEMPERATURE IN FAHRENHEIT
DP     - DEWPOINT IN FAHRENHEIT
RH     - RELATIVE HUMIDITY IN PERCENT
WIND   - DIRECTION AND SPEED IN MILES PER HOUR (MPH)
VRB    - VARIABLE WIND DIRECTION
PRES   - MEAN SEA LEVEL PRESSURE IN INCHES OF MERCURY
         F - FALLING PRESSURE   R - RISING PRESSURE
         S - STEADY PRESSURE
VSB    - VISIBILITY IN MILES
HX     - HEAT INDEX IN FAHRENHEIT
WCI    - WIND CHILL INDEX IN FAHRENHEIT
N/A    - NOT AVAILABLE
AFB    - AIR FORCE BASE
         DAVIS-MONTHAN IS DAVIS-MONTHAN AIR FORCE BASE
CYN    - CANYON
MTNS   - MOUNTAINS
NCA    - NATIONAL CONSERVATION AREA
NR     - NEAR
VLY    - VALLEY
CONTL  - CONTINENTAL
PIMA CO DEQ - PIMA COUNTY DEPT OF ENVIRONMENTAL QUALITY



USA.gov is the U.S. government's official web portal to all federal, state and local government web resources and services.